Location: Buena Vista
(37.7110°N, 119.7938°W)
Time: 06:35:33
(UTC+00:00)

Hubble Space Telescope - Pass Details

Date: 18 August 2024
Orbit: 505 x 509 km, 28.5° (Epoch: 19 September)

Event Time Altitude Azimuth Distance (km) Brightness Sun altitude
Exits shadow 11:00:37 11° 130° (SE) 1,623 3.3 -24.5°
Drops below altitude 10° 11:00:55 10° 127° (SE) 1,709 3.4 -24.5°
Sets 11:03:32 0° 111° (ESE) 2,595 4.6 -24.1°
